TimeMDT,TemperatureF,Dew PointF,Humidity,Sea Level PressureIn,VisibilityMPH,Wind Direction,Wind SpeedMPH,Gust SpeedMPH,PrecipitationIn,Events,Conditions,WindDirDegrees,DateUTC
12:53 AM,48.0,32.0,54,30.05,10.0,SSE,4.6,-,N/A,,Clear,160,2011-10-15 06:53:00
1:53 AM,46.0,30.9,56,30.06,10.0,SSE,6.9,-,N/A,,Clear,150,2011-10-15 07:53:00
2:53 AM,44.1,30.9,60,30.07,10.0,SE,6.9,-,N/A,,Clear,140,2011-10-15 08:53:00
3:53 AM,43.0,30.9,62,30.08,10.0,SSE,8.1,-,N/A,,Clear,150,2011-10-15 09:53:00
4:53 AM,43.0,30.9,62,30.07,10.0,South,6.9,-,N/A,,Clear,170,2011-10-15 10:53:00
5:53 AM,41.0,30.9,67,30.09,10.0,SE,6.9,-,N/A,,Clear,130,2011-10-15 11:53:00
7:53 AM,43.0,32.0,65,30.15,10.0,SSE,5.8,-,N/A,,Clear,160,2011-10-15 13:53:00
8:53 AM,48.9,33.1,54,30.15,10.0,South,4.6,-,N/A,,Clear,190,2011-10-15 14:53:00
10:53 AM,62.1,30.9,31,30.09,10.0,NW,6.9,-,N/A,,Clear,310,2011-10-15 16:53:00
11:53 AM,66.0,30.9,27,30.07,10.0,Calm,Calm,-,N/A,,Clear,0,2011-10-15 17:53:00
12:53 PM,72.0,33.1,24,30.03,10.0,Variable,3.5,-,N/A,,Clear,0,2011-10-15 18:53:00
1:53 PM,75.0,32.0,21,29.99,10.0,Calm,Calm,-,N/A,,Clear,0,2011-10-15 19:53:00
2:53 PM,78.1,28.9,17,29.97,10.0,Calm,Calm,-,N/A,,Clear,0,2011-10-15 20:53:00
3:53 PM,80.1,28.0,15,29.95,10.0,NNE,5.8,-,N/A,,Clear,20,2011-10-15 21:53:00
4:53 PM,80.1,26.1,14,29.94,10.0,Calm,Calm,-,N/A,,Clear,0,2011-10-15 22:53:00
5:53 PM,77.0,25.0,15,29.95,10.0,West,4.6,-,N/A,,Clear,260,2011-10-15 23:53:00
6:53 PM,70.0,26.1,19,29.97,10.0,South,4.6,-,N/A,,Clear,190,2011-10-16 00:53:00
7:53 PM,62.1,27.0,26,30.01,10.0,SE,8.1,-,N/A,,Clear,140,2011-10-16 01:53:00
8:53 PM,60.1,28.0,30,30.00,10.0,ESE,10.4,-,N/A,,Clear,120,2011-10-16 02:53:00
9:53 PM,57.0,28.0,33,29.99,10.0,ESE,6.9,-,N/A,,Clear,120,2011-10-16 03:53:00
10:53 PM,54.0,28.0,37,30.00,10.0,ESE,8.1,-,N/A,,Clear,110,2011-10-16 04:53:00